W5HRH Weather Reports


Display with metric or nautical units.
time (UTC)temp
F
wind
direction
speed
MPH
gust
MPH
rain 1hr
in
rain 24hr
in
rain mn
in
humidity
%
barometer
mb
20260508153600 68 12 2.0 6.0 0.00 0.00 0.00 88 1014.8
20260508153100 68 15 1.0 7.0 0.00 0.00 0.00 88 1015.0
20260508152559 68 29 1.0 9.0 0.00 0.00 0.00 87 1014.9
20260508152059 68 68 0.0 6.0 0.00 0.00 0.00 87 1015.0
20260508151602 68 18 1.0 6.0 0.00 0.00 0.00 87 1014.8
20260508151059 68 75 2.0 9.0 0.00 0.00 0.00 87 1014.8
20260508150557 68 34 3.0 9.0 0.00 0.00 0.00 86 1014.5
20260508150057 69 27 2.0 9.0 0.00 0.00 0.00 86 1014.9
20260508145600 69 26 1.0 9.0 0.00 0.00 0.00 86 1014.9
20260508145058 69 350 1.0 5.0 0.00 0.00 0.00 86 1014.8
20260508144556 69 140 1.0 10.0 0.00 0.00 0.00 85 1014.5
20260508144156 69 105 3.0 10.0 0.00 0.00 0.00 85 1014.5
20260508143556 69 55 2.0 9.0 0.00 0.00 0.00 85 1014.7
20260508143104 69 35 3.0 9.0 0.00 0.00 0.00 85 1014.8
20260508142558 69 40 2.0 5.0 0.00 0.00 0.00 85 1014.7
20260508142055 69 49 0.0 5.0 0.00 0.00 0.00 85 1014.9
20260508141555 69 9 1.0 4.0 0.00 0.00 0.00 85 1015.0
20260508141054 69 53 1.0 4.0 0.00 0.00 0.00 85 1014.8
20260508140555 69 99 0.0 3.0 0.00 0.00 0.00 85 1014.7
20260508140104 69 92 0.0 2.0 0.00 0.00 0.00 86 1014.7
20260508135554 69 92 0.0 5.0 0.00 0.00 0.00 86 1014.6
20260508135052 69 140 0.0 5.0 0.00 0.00 0.00 86 1014.6
20260508134602 69 124 0.0 3.0 0.00 0.00 0.00 86 1014.4
20260508134052 69 182 0.0 2.0 0.00 0.00 0.00 86 1014.5
20260508133552 69 91 0.0 2.0 0.00 0.00 0.00 87 1014.6
20260508133054 68 92 0.0 1.0 0.00 0.00 0.00 87 1014.6
20260508132552 68 86 0.0 1.0 0.00 0.00 0.00 87 1014.7
20260508132052 68 84 0.0 2.0 0.00 0.00 0.00 86 1014.7
20260508131552 68 84 0.0 2.0 0.00 0.00 0.00 86 1014.7
20260508131052 68 84 0.0 2.0 0.00 0.00 0.00 86 1014.8
20260508130552 68 67 0.0 2.0 0.00 0.00 0.00 86 1014.8
20260508130052 68 68 0.0 2.0 0.00 0.00 0.00 86 1014.8
20260508125552 68 105 0.0 4.0 0.00 0.00 0.00 86 1014.8
20260508125053 68 70 1.0 4.0 0.00 0.00 0.00 86 1014.8
20260508124550 68 46 1.0 4.0 0.00 0.00 0.00 86 1014.9
20260508124051 68 13 1.0 6.0 0.00 0.00 0.00 87 1014.8
20260508123550 68 360 1.0 6.0 0.00 0.00 0.00 87 1014.8
20260508123051 68 42 1.0 6.0 0.00 0.00 0.00 87 1014.6
20260508122550 68 360 2.0 5.0 0.00 0.00 0.00 87 1014.5
20260508122050 68 47 1.0 5.0 0.00 0.00 0.00 87 1014.6
20260508121550 68 17 1.0 4.0 0.00 0.00 0.00 88 1014.7
20260508121050 68 69 0.0 3.0 0.00 0.00 0.00 88 1014.8
20260508120549 68 27 0.0 3.0 0.00 0.00 0.00 88 1015.0
20260508120051 68 42 0.0 3.0 0.00 0.00 0.00 88 1015.1
20260508115548 68 16 1.0 6.0 0.00 0.00 0.00 88 1015.1
20260508115048 68 42 0.0 6.0 0.00 0.00 0.00 88 1014.9
20260508114603 68 56 2.0 5.0 0.00 0.00 0.00 88 1014.9
20260508114048 68 38 2.0 5.0 0.00 0.00 0.00 88 1015.0
20260508113548 67 44 0.0 4.0 0.00 0.00 0.00 89 1015.0
20260508113047 67 32 1.0 4.0 0.00 0.00 0.00 88 1015.0
20260508112547 67 53 0.0 3.0 0.00 0.00 0.00 88 1014.8
20260508112047 67 351 0.0 3.0 0.00 0.00 0.00 88 1014.9
20260508111559 67 161 0.0 5.0 0.00 0.00 0.00 88 1014.7
20260508111047 68 94 0.0 5.0 0.00 0.00 0.00 88 1014.6
20260508110546 68 78 0.0 3.0 0.00 0.00 0.00 87 1014.6
20260508110045 68 90 0.0 6.0 0.00 0.00 0.00 87 1014.6
20260508105548 68 61 1.0 6.0 0.00 0.00 0.00 86 1014.5
20260508105044 68 86 0.0 9.0 0.00 0.00 0.00 86 1014.7
20260508104544 68 71 3.0 9.0 0.00 0.00 0.00 85 1014.7
20260508104044 68 15 2.0 6.0 0.00 0.00 0.00 85 1014.8
20260508103545 68 14 3.0 5.0 0.00 0.00 0.00 85 1014.8
20260508103042 68 355 0.0 4.0 0.00 0.00 0.00 85 1014.6
20260508102543 68 5 0.0 4.0 0.00 0.00 0.00 85 1014.5
20260508102041 68 10 0.0 4.0 0.00 0.00 0.00 85 1014.7
20260508101541 68 85 0.0 3.0 0.00 0.00 0.00 85 1014.6
20260508101043 68 71 0.0 5.0 0.00 0.00 0.00 85 1014.3
20260508100545 69 65 0.0 5.0 0.00 0.00 0.00 85 1014.5
20260508100041 69 76 1.0 5.0 0.00 0.00 0.00 85 1014.7
20260508095544 69 56 1.0 4.0 0.00 0.00 0.00 85 1014.8
20260508095040 69 360 1.0 4.0 0.00 0.00 0.00 85 1014.4
20260508094540 69 18 1.0 4.0 0.00 0.00 0.00 85 1014.7
20260508094039 69 40 1.0 4.0 0.00 0.00 0.00 85 1014.9
20260508093539 69 5 1.0 8.0 0.00 0.00 0.00 84 1014.6
20260508093039 69 101 2.0 8.0 0.00 0.00 0.00 84 1014.1
20260508092537 69 115 1.0 8.0 0.00 0.00 0.00 84 1014.1
20260508092037 69 65 2.0 6.0 0.00 0.00 0.00 83 1014.2
20260508091544 69 60 1.0 6.0 0.00 0.00 0.00 83 1014.3
20260508091038 69 99 1.0 7.0 0.00 0.00 0.00 83 1014.2
20260508090536 69 114 3.0 7.0 0.00 0.00 0.00 82 1014.1
20260508090036 69 65 2.0 7.0 0.00 0.00 0.00 82 1014.2
20260508085535 69 34 3.0 6.0 0.00 0.00 0.00 81 1014.4
20260508085037 69 65 2.0 6.0 0.00 0.00 0.00 81 1014.6
20260508084532 69 60 2.0 6.0 0.00 0.00 0.00 81 1014.8
20260508084032 70 61 1.0 5.0 0.00 0.00 0.00 81 1014.9
20260508083531 70 34 1.0 5.0 0.00 0.00 0.00 81 1014.7
20260508083031 70 64 1.0 4.0 0.00 0.00 0.00 80 1014.7
20260508082534 70 45 1.0 4.0 0.00 0.00 0.00 80 1014.7
20260508082031 70 64 2.0 4.0 0.00 0.00 0.00 80 1014.8
20260508081543 70 19 1.0 4.0 0.00 0.00 0.00 80 1014.7
20260508081030 70 5 1.0 6.0 0.00 0.00 0.00 80 1014.5
20260508080529 70 36 2.0 6.0 0.00 0.00 0.00 80 1014.5
20260508080034 70 34 2.0 5.0 0.00 0.00 0.00 80 1014.5
20260508075528 70 76 2.0 5.0 0.00 0.00 0.00 79 1014.7
20260508075026 70 11 2.0 5.0 0.00 0.00 0.00 79 1014.9
20260508074527 71 44 2.0 5.0 0.00 0.00 0.00 79 1014.9
20260508074025 71 31 1.0 4.0 0.00 0.00 0.00 79 1015.0
20260508073525 71 51 1.0 4.0 0.00 0.00 0.00 79 1015.0
20260508073024 71 30 1.0 6.0 0.00 0.00 0.00 79 1015.1
20260508072524 71 355 2.0 7.0 0.00 0.00 0.00 79 1015.0
20260508072024 71 31 1.0 4.0 0.00 0.00 0.00 79 1015.0
20260508071524 71 53 1.0 3.0 0.00 0.00 0.00 79 1014.8
20260508071023 71 80 0.0 4.0 0.00 0.00 0.00 79 1014.8
20260508070525 71 56 1.0 5.0 0.00 0.00 0.00 79 1015.0
20260508070023 71 46 2.0 5.0 0.00 0.00 0.00 79 1015.0
20260508065523 71 70 1.0 6.0 0.00 0.00 0.00 79 1014.8
20260508065021 71 75 0.0 6.0 0.00 0.00 0.00 78 1015.0
20260508064527 71 117 0.0 6.0 0.00 0.00 0.00 78 1015.0
20260508064024 71 72 1.0 6.0 0.00 0.00 0.00 78 1014.9
20260508063524 71 90 1.0 7.0 0.00 0.00 0.00 78 1015.0
20260508063021 71 80 2.0 7.0 0.00 0.00 0.00 78 1015.0
20260508062521 71 98 1.0 5.0 0.00 0.00 0.00 78 1014.9
20260508062020 71 92 2.0 5.0 0.00 0.00 0.00 78 1015.1
20260508061520 71 82 0.0 7.0 0.00 0.00 0.00 78 1014.9
20260508061019 71 96 0.0 4.0 0.00 0.00 0.00 78 1015.0
20260508060523 71 92 1.0 4.0 0.00 0.00 0.00 78 1015.3
20260508060019 71 98 0.0 4.0 0.00 0.00 0.00 78 1015.3
20260508055518 71 80 1.0 4.0 0.00 0.00 0.00 78 1015.2
20260508055018 71 92 0.0 6.0 0.00 0.00 0.00 77 1015.1
20260508054518 71 105 2.0 6.0 0.00 0.00 0.00 77 1015.0
20260508054017 71 89 1.0 6.0 0.00 0.00 0.00 77 1015.1
20260508053516 71 77 1.0 5.0 0.00 0.00 0.00 78 1015.2
20260508053016 71 56 1.0 4.0 0.00 0.00 0.00 78 1015.1
20260508052516 71 74 1.0 5.0 0.00 0.00 0.00 77 1015.1
20260508052016 72 41 3.0 6.0 0.00 0.00 0.00 77 1015.1
20260508051526 72 49 1.0 5.0 0.00 0.00 0.00 77 1015.0
20260508051014 72 61 2.0 5.0 0.00 0.00 0.00 77 1014.9
20260508050516 72 74 2.0 5.0 0.00 0.00 0.00 77 1015.1
20260508050012 72 51 2.0 5.0 0.00 0.00 0.00 77 1015.3
20260508045514 72 53 2.0 5.0 0.00 0.00 0.00 77 1015.1
20260508045011 72 70 0.0 3.0 0.00 0.00 0.00 77 1015.1
20260508044511 72 19 1.0 5.0 0.00 0.00 0.00 77 1015.3
20260508044011 72 50 2.0 5.0 0.00 0.00 0.00 76 1015.3
20260508043511 72 13 1.0 4.0 0.00 0.00 0.00 76 1015.3
20260508043018 72 48 1.0 4.0 0.00 0.00 0.00 76 1015.2
20260508042511 72 70 0.0 4.0 0.00 0.00 0.00 75 1015.4
20260508042010 72 67 1.0 5.0 0.00 0.00 0.00 75 1015.4
20260508041514 72 360 2.0 6.0 0.00 0.00 0.00 75 1015.6
20260508041010 72 65 1.0 4.0 0.00 0.00 0.00 75 1015.6
20260508040510 72 84 1.0 7.0 0.00 0.00 0.00 74 1015.2
20260508040010 72 94 3.0 7.0 0.00 0.00 0.00 74 1014.8
20260508035514 72 86 2.0 8.0 0.00 0.00 0.00 74 1014.7
20260508035009 72 123 1.0 8.0 0.00 0.00 0.00 73 1014.7
20260508034510 72 105 2.0 8.0 0.00 0.00 0.00 73 1014.9
20260508034009 72 71 2.0 8.0 0.00 0.00 0.00 73 1015.1
20260508033509 73 92 2.0 5.0 0.00 0.00 0.00 72 1015.6
20260508033009 73 41 1.0 6.0 0.00 0.00 0.00 72 1015.6
20260508032509 73 107 2.0 6.0 0.00 0.00 0.00 72 1015.7
20260508032009 73 51 2.0 6.0 0.00 0.00 0.00 72 1015.8
20260508031509 73 66 2.0 5.0 0.00 0.00 0.00 72 1016.0
20260508031008 73 24 3.0 6.0 0.00 0.00 0.00 72 1016.0
20260508030508 73 42 2.0 7.0 0.00 0.00 0.00 72 1015.9
20260508030008 74 34 2.0 5.0 0.00 0.00 0.00 72 1016.0
20260508025510 74 28 2.0 5.0 0.00 0.00 0.00 72 1015.9
20260508025009 74 51 2.0 8.0 0.00 0.00 0.00 72 1015.9
20260508024507 74 42 2.0 8.0 0.00 0.00 0.00 72 1016.0
20260508024007 74 49 2.0 6.0 0.00 0.00 0.00 73 1015.8
20260508023508 74 48 3.0 6.0 0.00 0.00 0.00 72 1015.5
20260508023006 75 55 2.0 6.0 0.00 0.00 0.00 72 1015.4
20260508022506 75 5 1.0 6.0 0.00 0.00 0.00 72 1015.4
20260508022006 75 39 2.0 8.0 0.00 0.00 0.00 72 1015.5
20260508021505 75 54 3.0 8.0 0.00 0.00 0.00 72 1015.6
20260508021009 75 22 2.0 6.0 0.00 0.00 0.00 72 1015.5
20260508020505 75 49 1.0 5.0 0.00 0.00 0.00 72 1015.6
20260508020011 75 36 1.0 5.0 0.00 0.00 0.00 72 1015.5
20260508015505 75 26 2.0 5.0 0.00 0.00 0.00 72 1015.4
20260508015005 75 74 1.0 6.0 0.00 0.00 0.00 72 1015.4
20260508014505 75 63 2.0 6.0 0.00 0.00 0.00 72 1015.4
20260508014004 75 67 1.0 5.0 0.00 0.00 0.00 72 1015.3
20260508013509 75 76 1.0 5.0 0.00 0.00 0.00 72 1015.2
20260508013006 75 122 1.0 7.0 0.00 0.00 0.00 72 1015.2
20260508012504 75 50 2.0 7.0 0.00 0.00 0.00 72 1015.4
20260508012004 75 72 2.0 5.0 0.00 0.00 0.00 72 1015.3
20260508011504 75 52 2.0 6.0 0.00 0.00 0.00 72 1015.3
20260508011003 75 103 1.0 5.0 0.00 0.00 0.00 72 1015.3
20260508010503 75 58 0.0 6.0 0.00 0.00 0.00 72 1015.5
20260508010004 75 12 2.0 9.0 0.00 0.00 0.00 72 1015.5
20260508005503 76 348 3.0 9.0 0.00 0.00 0.00 72 1015.5
20260508005001 76 36 3.0 9.0 0.00 0.00 0.00 72 1015.5
20260508004506 76 53 3.0 9.0 0.00 0.00 0.00 72 1015.3
20260508004002 76 360 3.0 9.0 0.00 0.00 0.00 71 1015.2
20260508003502 76 5 2.0 6.0 0.00 0.00 0.00 72 1015.2
20260508003001 76 47 2.0 10.0 0.00 0.00 0.00 71 1015.4
20260508002504 76 21 3.0 10.0 0.00 0.00 0.00 72 1015.3
20260508002003 77 48 2.0 5.0 0.00 0.00 0.00 71 1015.3
20260508001501 77 82 1.0 10.0 0.00 0.00 0.00 72 1015.3
20260508001001 77 37 3.0 10.0 0.00 0.00 0.00 71 1015.2
20260508000500 77 345 2.0 10.0 0.00 0.00 0.00 71 1015.4
20260508000001 77 10 4.0 10.0 0.00 0.00 0.00 71 1015.5
20260507235503 77 23 5.0 9.0 0.00 0.00 0.00 71 1015.4
20260507235101 77 35 3.0 8.0 0.00 0.00 0.00 71 1015.5
20260507234600 78 88 3.0 10.0 0.00 0.00 0.00 71 1015.5
20260507234501 78 9 3.0 10.0 0.00 0.00 0.00 71 1015.5
20260507234059 78 46 3.0 8.0 0.00 0.00 0.00 71 1015.3
20260507233600 78 71 2.0 5.0 0.00 0.00 0.00 72 1015.3
20260507233101 78 18 3.0 8.0 0.00 0.00 0.00 72 1015.2
20260507232600 78 13 3.0 8.0 0.00 0.00 0.00 72 1015.1
20260507232100 78 66 2.0 5.0 0.00 0.00 0.00 72 1015.0
20260507231600 77 87 2.0 8.0 0.00 0.00 0.00 72 1015.1
20260507231059 77 115 3.0 8.0 0.00 0.00 0.00 72 1015.1
20260507230559 78 73 3.0 8.0 0.00 0.00 0.00 72 1014.9
20260507230059 78 88 3.0 8.0 0.00 0.00 0.00 71 1015.0
20260507225559 78 84 2.0 7.0 0.00 0.00 0.00 71 1015.0
20260507225058 78 130 2.0 5.0 0.00 0.00 0.00 71 1015.0
20260507224559 78 108 1.0 8.0 0.00 0.00 0.00 71 1014.8
20260507224057 78 35 2.0 8.0 0.00 0.00 0.00 71 1015.4
20260507223600 77 21 2.0 6.0 0.00 0.00 0.00 72 1014.8
20260507223059 77 107 2.0 6.0 0.00 0.00 0.00 72 1014.7
20260507222559 77 61 1.0 9.0 0.00 0.00 0.00 72 1014.8
20260507222057 77 53 3.0 10.0 0.00 0.00 0.00 71 1014.7
20260507221557 78 5 3.0 11.0 0.00 0.00 0.00 71 1014.8
20260507221057 78 17 2.0 6.0 0.00 0.00 0.00 71 1014.9
20260507220556 78 333 2.0 8.0 0.00 0.00 0.00 71 1014.8
20260507220057 78 67 3.0 9.0 0.00 0.00 0.00 71 1014.8
20260507215559 78 126 3.0 9.0 0.00 0.00 0.00 71 1014.8
20260507215056 78 55 3.0 9.0 0.00 0.00 0.00 70 1014.9
20260507214556 78 49 2.0 10.0 0.00 0.00 0.00 71 1015.2
20260507214056 78 341 3.0 10.0 0.00 0.00 0.00 71 1015.1
20260507213557 78 67 2.0 9.0 0.00 0.00 0.00 71 1015.2
20260507213056 79 333 3.0 6.0 0.00 0.00 0.00 70 1015.2
20260507212555 79 72 1.0 6.0 0.00 0.00 0.00 71 1015.2
20260507212055 79 360 3.0 9.0 0.00 0.00 0.00 71 1015.1
20260507211555 79 79 3.0 9.0 0.00 0.00 0.00 71 1015.3
20260507211054 79 77 3.0 9.0 0.00 0.00 0.00 71 1015.4
20260507210554 79 346 3.0 9.0 0.00 0.00 0.00 71 1015.6
20260507210053 78 39 4.0 9.0 0.00 0.00 0.00 71 1015.6
20260507205554 78 67 2.0 8.0 0.00 0.00 0.00 71 1015.6
20260507205056 78 63 3.0 8.0 0.00 0.00 0.00 72 1015.6
20260507204554 78 50 2.0 9.0 0.00 0.00 0.00 72 1015.6
20260507204051 78 51 3.0 9.0 0.00 0.00 0.00 71 1015.8
20260507203551 78 343 3.0 8.0 0.00 0.00 0.00 72 1015.7
20260507203050 77 68 2.0 7.0 0.00 0.00 0.00 72 1015.8
20260507202548 77 142 3.0 8.0 0.00 0.00 0.00 72 1015.8
20260507202047 77 334 4.0 11.0 0.00 0.00 0.00 73 1015.9
20260507201556 77 53 3.0 10.0 0.00 0.00 0.00 72 1016.0
20260507201047 76 64 2.0 10.0 0.00 0.00 0.00 73 1016.0
20260507200546 76 350 4.0 12.0 0.00 0.00 0.00 72 1016.0
20260507200042 76 51 6.0 12.0 0.00 0.00 0.00 72 1016.1
20260507195542 76 12 4.0 11.0 0.00 0.00 0.00 73 1016.1
20260507195040 76 61 3.0 10.0 0.00 0.00 0.00 73 1016.1
20260507194539 76 16 5.0 10.0 0.00 0.00 0.00 73 1016.1
20260507194039 75 57 2.0 11.0 0.00 0.00 0.00 74 1016.3
20260507193536 75 76 3.0 11.0 0.00 0.00 0.00 74 1016.3
20260507193047 75 350 4.0 12.0 0.00 0.00 0.00 74 1016.4
20260507192536 75 26 5.0 12.0 0.00 0.00 0.00 74 1016.6
20260507192035 74 42 4.0 11.0 0.00 0.00 0.00 75 1016.6
20260507191533 74 51 3.0 11.0 0.00 0.00 0.00 75 1016.7
20260507191032 74 65 4.0 11.0 0.00 0.00 0.00 75 1016.7
20260507190532 74 355 4.0 11.0 0.00 0.00 0.00 75 1016.9
20260507190033 74 15 3.0 8.0 0.00 0.00 0.00 75 1017.0
20260507185529 73 9 2.0 11.0 0.00 0.00 0.00 76 1016.9
20260507185030 73 42 4.0 11.0 0.00 0.00 0.00 76 1016.8
20260507184528 73 31 4.0 10.0 0.00 0.00 0.00 75 1016.9
20260507184027 73 30 3.0 11.0 0.00 0.00 0.00 76 1017.1
20260507183526 72 39 4.0 11.0 0.00 0.00 0.00 77 1017.0
20260507183026 72 49 5.0 11.0 0.00 0.00 0.00 76 1017.1
20260507182527 72 21 3.0 9.0 0.00 0.00 0.00 77 1017.2
20260507182025 72 18 2.0 13.0 0.00 0.00 0.00 76 1017.2
20260507181524 72 63 2.0 10.0 0.00 0.00 0.00 77 1017.2
20260507181026 72 332 3.0 10.0 0.00 0.00 0.00 77 1017.3
20260507180523 72 350 5.0 10.0 0.00 0.00 0.00 76 1017.3
20260507180025 72 345 5.0 10.0 0.00 0.00 0.00 76 1017.6
20260507175523 72 341 4.0 10.0 0.00 0.00 0.00 76 1017.5
20260507175022 71 69 4.0 10.0 0.00 0.00 0.00 77 1017.5
20260507174519 71 50 3.0 10.0 0.00 0.00 0.00 78 1017.4
20260507174018 70 22 4.0 10.0 0.00 0.00 0.00 78 1017.6
20260507173519 70 44 3.0 10.0 0.00 0.00 0.00 79 1017.6
20260507173030 70 5 5.0 12.0 0.00 0.00 0.00 78 1017.7
20260507172519 70 342 5.0 12.0 0.00 0.00 0.00 78 1017.8
20260507172021 69 33 3.0 12.0 0.00 0.00 0.00 79 1017.9
20260507171518 69 335 6.0 12.0 0.00 0.00 0.00 79 1017.9
20260507171021 69 66 4.0 9.0 0.00 0.00 0.00 80 1017.9
20260507170518 68 30 3.0 9.0 0.00 0.00 0.00 80 1018.0
20260507170017 68 32 2.0 10.0 0.00 0.02 0.00 80 1018.1
20260507165517 68 5 4.0 10.0 0.00 0.02 0.00 80 1018.1
20260507165016 68 5 3.0 11.0 0.00 0.02 0.00 80 1018.1
20260507164516 68 51 4.0 11.0 0.00 0.02 0.00 80 1017.9
20260507164016 68 40 3.0 10.0 0.00 0.02 0.00 80 1017.9
20260507163516 67 15 5.0 11.0 0.00 0.02 0.00 80 1017.7
20260507163015 68 15 6.0 11.0 0.00 0.02 0.00 80 1017.7
20260507162515 67 5 2.0 8.0 0.00 0.02 0.00 80 1017.7
20260507162015 67 5 3.0 7.0 0.00 0.02 0.00 81 1017.5
20260507161520 67 355 1.0 9.0 0.00 0.02 0.00 82 1017.4
20260507161014 66 57 3.0 10.0 0.00 0.02 0.00 82 1017.4
20260507160514 66 75 6.0 10.0 0.00 0.02 0.00 82 1017.4
20260507160013 66 328 4.0 11.0 0.00 0.02 0.00 83 1017.4
20260507155513 65 28 3.0 11.0 0.00 0.02 0.00 83 1017.7
20260507155013 65 349 4.0 11.0 0.00 0.02 0.00 83 1017.6
20260507154518 65 44 4.0 9.0 0.00 0.02 0.00 83 1017.8
20260507154012 65 63 3.0 9.0 0.00 0.02 0.00 84 1017.8